CAPE
1 1 0 1 1 1 2 1 1 0 0 0 0 0 0 0 0 0 0 0 0 0 0 0 0 0 0 0 0 0 0 0 0 0 0 0 0 0 0 0 0 0 0
1 1 1 0 0 0 0 0 0 0 0 0 0 0 0 0 0 0 0 0 0 0 0 0 0 0 0 0 0 0 0 0 0 0 0 0 0 0 0 0 0 0 0
0 0 0 1 0 0 0 0 0 0 0 0 0 0 0 0 0 0 0 0 0 0 0 0 0 0 0 0 0 0 0 0 0 0 0 0 0 0 0 0 0 0 0
0 0 0 0 0 0 0 0 0 0 0 0 0 0 0 0 0 0 0 0 0 0 0 0 0 0 0 0 0 0 0 0 0 0 0 0 0 0 0 0 0 0 0
0 0 0 0 0 0 0 0 0 0 0 0 0 0 0 0 0 0 0 0 0 0 0 0 0 0 0 0 0 0 0 0 0 0 0 0 0 0 0 0 0 0 0
0 0 0 0 0 0 0 0 0 0 0 0 0 0 0 0 0 0 0 0 0 0 0 0 0 0 0 0 0 0 0 0 0 0 0 0 0 0 0 0 0 0 0
0 0 0 0 0 0 0 0 0 0 0 0 0 0 0 0 0 0 0 0 0 0 0 0 0 0 0 0 0 0 0 0 0 0 0 0 0 0 0 0 0 7 11
0 0 0 0 0 0 0 0 0 0 0 0 0 0 0 0 0 0 0 0 0 0 0 0 0 0 0 0 0 0 0 0 0 0 0 0 0 0 0 0 9 2 0
0 0 0 0 0 0 0 0 0 0 0 0 0 0 0 0 0 0 0 0 0 0 0 0 0 0 0 0 0 0 0 0 0 1 0 0 0 0 0 0 0 0 2
0 0 0 0 0 0 0 0 0 0 0 0 0 0 0 0 1 0 0 0 0 0 0 0 0 0 5 23 0 0 0 0 0 0 0 0 0 0 0 0 0 0 0
0 0 0 0 0 0 0 0 0 0 0 0 0 0 0 0 0 0 0 0 0 0 0 0 0 2 8 10 1 0 0 0 0 0 0 0 0 0 0 0 0 0 0
0 0 0 0 0 0 0 0 0 0 0 0 0 0 0 0 0 0 1 0 1 0 0 0 0 2 4 1 0 3 4 0 0 0 0 0 0 0 0 0 0 0 0
0 0 0 0 0 0 0 0 0 0 0 0 0 0 0 0 0 0 0 0 16 0 0 3 8 8 1 0 3 0 0 0 0 0 0 0 0 0 0 0 0 0 0
0 0 0 0 0 0 0 0 0 0 0 0 0 0 0 0 0 0 0 0 1 0 0 0 0 2 4 0 0 0 0 0 1 1 0 0 0 0 0 0 0 0 0
0 0 0 0 0 0 0 0 0 0 0 0 0 0 0 0 0 0 0 0 0 1 0 0 0 0 0 0 0 0 1 0 11 10 15 13 11 12 5 2 0 0 1
0 0 0 0 0 0 0 0 0 0 0 0 0 0 0 0 0 0 6 16 3 6 0 0 0 0 0 0 0 0 0 1 2 10 21 22 26 18 2 10 8 1 3
0 0 0 0 0 0 0 0 0 0 0 0 0 0 0 0 0 1 3 10 2 2 0 0 0 0 0 3 0 1 3 2 3 6 5 1 12 9 10 2 0 7 3
0 0 0 0 0 0 0 0 0 0 0 0 0 0 0 0 0 1 2 5 0 0 0 0 1 1 1 1 5 12 2 0 1 0 0 0 1 15 11 7 4 8 6
0 0 0 0 0 0 0 0 0 0 0 0 0 0 0 2 0 0 7 0 0 0 0 0 2 17 34 29 4 4 17 18 24 25 34 8 20 0 4 5 1 26 12
0 0 0 0 0 0 0 0 0 0 0 0 0 0 0 0 0 0 0 0 0 0 0 31 7 5 10 18 20 27 28 38 39 2 2 3 2 0 5 17 2 0 1
0 0 0 0 0 0 0 0 0 0 0 0 0 0 0 0 0 0 0 0 0 0 0 0 0 0 1 2 4 5 4 5 4 8 5 6 4 7 17 21 1 1 6
0 0 0 0 0 0 0 0 0 0 0 0 0 0 0 0 0 0 0 0 0 0 1 5 9 9 2 4 9 12 6 5 4 4 4 2 3 11 18 16 13 14 4
0 0 0 0 0 0 0 0 0 0 0 0 0 0 0 0 0 0 0 0 0 0 0 3 23 1 0 0 4 12 11 10 16 14 10 14 10 9 12 10 7 5 0
0 0 0 0 0 0 0 0 0 0 0 0 0 0 0 0 0 0 0 0 0 0 0 0 0 0 0 2 7 10 14 13 13 20 20 11 8 2 1 3 4 4 6
0 0 0 0 0 0 0 0 0 0 0 0 0 0 0 0 0 0 0 0 0 0 0 0 0 0 0 0 0 0 0 5 5 7 4 4 2 3 5 6 10 10 10
0 0 0 0 0 0 0 0 0 0 0 0 0 0 0 0 0 0 0 0 0 0 0 0 0 0 0 0 0 0 1 1 2 12 6 7 13 14 14 15 26 13 16
CIN
-0 -0 -0 -0 -0 -0 -0 -0 -0 -0 -0 -0 -0 -0 -0 -0 -0 -0 -0 -0 -0 -0 -0 -0 -0 -0 -0 -0 -0 -0 -0 -0 -0 -0 -0 -0 -0 -0 -0 -0 -0 -0 -0
-0 -0 -0 -0 -0 -0 -0 -0 -0 -0 -0 -0 -0 -0 -0 -0 -0 -0 -0 -0 -0 -0 -0 -0 -0 -0 -0 -0 -0 -0 -0 -0 -0 -0 -0 -0 -0 -0 -0 -0 -0 -0 -0
-0 -0 -0 -0 -0 -0 -0 -0 -0 -0 -0 -0 -0 -0 -0 -0 -0 -0 -0 -0 -0 -0 -0 -0 -0 -0 -0 -0 -0 -0 -0 -0 -0 -0 -0 -0 -0 -0 -0 -0 -0 -0 -0
-0 -0 -0 -0 -0 -0 -0 -0 -0 -0 -0 -0 -0 -0 -0 -0 -0 -0 -0 -0 -0 -0 -0 -0 -0 -0 -0 -0 -0 -0 -0 -0 -0 -0 -0 -0 -0 -0 -0 -0 -0 -0 -0
-0 -0 -0 -0 -0 -0 -0 -0 -0 -0 -0 -0 -0 -0 -0 -0 -0 -0 -0 -0 -0 -0 -0 -0 -0 -0 -0 -0 -0 -0 -0 -0 -0 -0 -0 -0 -0 -0 -0 -0 -0 -0 -0
-0 -0 -0 -0 -0 -0 -0 -0 -0 -0 -0 -0 -0 -0 -0 -0 -0 -0 -0 -0 -0 -0 -0 -0 -0 -0 -0 -0 -0 -0 -0 -0 -0 -0 -0 -0 -0 -0 -0 -0 -0 -0 -0
-0 -0 -0 -0 -0 -0 -0 -0 -0 -0 -0 -0 -0 -0 -0 -0 -0 -0 -0 -0 -0 -0 -0 -0 -0 -0 -0 -0 -0 -0 -0 -0 -0 -0 -0 -0 -0 -0 -0 -0 -0 -0 -0
-0 -0 -0 -0 -0 -0 -0 -0 -0 -0 -0 -0 -0 -0 -0 -0 -0 -0 -0 -0 -0 -0 -0 -0 -0 -0 -0 -0 -0 -0 -0 -0 -0 -0 -0 -0 -0 -0 -0 -2 -2 -1 -0
-0 -0 -0 -0 -0 -0 -0 -0 -0 -0 -0 -0 -0 -0 -0 -0 -0 -0 -0 -0 -0 -0 -0 -0 -0 -0 -0 -0 -0 -0 -0 -0 -0 -0 -0 -0 -0 -0 -0 -0 -0 -0 -0
-0 -0 -0 -0 -0 -0 -0 -0 -0 -0 -0 -0 -0 -0 -0 -0 -0 -0 -0 -0 -0 -0 -0 -0 -0 -0 -0 -0 -13 -3 -0 -0 -0 -0 -0 -0 -0 -0 -0 -0 -0 -0 -0
-0 -0 -0 -0 -0 -0 -0 -0 -0 -0 -0 -0 -0 -0 -0 -0 -0 -0 -0 -0 -0 -0 -0 -0 -0 -0 -0 -0 -2 -0 -0 -0 -0 -0 -0 -0 -0 -0 -0 -0 -0 -0 -0
-0 -0 -0 -0 -0 -0 -0 -0 -0 -0 -0 -0 -0 -0 -0 -0 -0 -0 -0 -0 -2 -0 -0 -0 -0 -3 -1 -8 -0 -1 -0 -0 -0 -0 -0 -0 -0 -0 -0 -0 -0 -0 -0
-0 -0 -0 -0 -0 -0 -0 -0 -0 -0 -0 -0 -0 -0 -0 -0 -0 -0 -0 -0 -2 -0 -0 -9 -2 -3 -5 -0 -3 -1 -1 -0 -0 -0 -0 -0 -0 -0 -0 -0 -0 -0 -0
-0 -0 -0 -0 -0 -0 -0 -0 -0 -0 -0 -0 -0 -0 -0 -0 -0 -0 -0 -0 -2 -0 -0 -0 -0 -2 -1 -0 -0 -0 -1 -3 -1 -11 -0 -14 -0 -0 -0 -0 -0 -0 -0
-0 -0 -0 -0 -0 -0 -0 -0 -0 -0 -0 -0 -0 -0 -0 -0 -0 -0 -0 -10 -0 -2 -1 -0 -0 -0 -0 -0 -6 -0 -10 -3 -3 -4 -2 -1 -2 -3 -8 -15 -0 -0 -0
-0 -0 -0 -0 -0 -0 -0 -0 -0 -0 -0 -0 -0 -0 -0 -0 -0 -0 -0 -0 -5 -1 -0 -0 -0 -0 -0 -0 -2 -0 -0 -1 -1 -2 -0 -0 -0 -0 -0 -0 -3 -4 -1
-0 -0 -0 -0 -0 -0 -0 -0 -0 -0 -0 -0 -0 -0 -0 -0 -0 -0 -0 -2 -6 -5 -0 -0 -0 -11 -8 -8 -0 -0 -0 -0 -0 -0 -0 -0 -0 -0 -0 -3 -2 -5 -1
-0 -0 -0 -0 -0 -0 -0 -0 -0 -0 -0 -0 -0 -0 -0 -0 -0 -0 -0 -1 -0 -0 -0 -0 -12 -4 -4 -5 -1 -0 -0 -0 -8 -0 -0 -0 -5 -0 -0 -0 -2 -0 -0
-0 -0 -0 -0 -0 -0 -0 -0 -0 -0 -0 -0 -0 -0 -0 -0 -0 -0 -1 -0 -0 -0 -1 -9 -0 -0 -0 -0 -4 -1 -0 -0 -0 -0 -0 -1 -3 -1 -0 -0 -0 -0 -0
-0 -0 -0 -0 -0 -0 -0 -0 -0 -0 -0 -0 -0 -0 -0 -0 -0 -0 -0 -0 -0 -0 -0 -0 -0 -0 -0 -1 -2 -0 -0 -0 -0 -0 -0 -0 -0 -0 -0 -0 -0 -0 -2
-0 -0 -0 -0 -0 -0 -0 -0 -0 -0 -0 -0 -0 -0 -0 -0 -0 -0 -0 -0 -0 -0 -0 -0 -0 -0 -1 -1 -0 -0 -0 -0 -2 -0 -0 -0 -1 -0 -1 -0 -0 -0 -0
-0 -0 -0 -0 -0 -0 -0 -0 -0 -0 -0 -0 -0 -0 -0 -0 -0 -0 -0 -0 -0 -4 -0 -0 -0 -1 -0 -1 -1 -0 -0 -0 -1 -1 -0 -1 -0 -0 -0 -0 -0 -0 -0
-0 -0 -0 -0 -0 -0 -0 -0 -0 -0 -0 -0 -0 -0 -0 -0 -0 -0 -0 -0 -0 -0 -0 -0 -0 -0 -0 -0 -3 -0 -0 -0 -0 -0 -0 -0 -0 -2 -0 -0 -0 -0 -0
-0 -0 -0 -0 -0 -0 -0 -0 -0 -0 -0 -0 -0 -0 -0 -0 -0 -0 -0 -0 -0 -0 -0 -0 -0 -0 -0 -1 -0 -0 -0 -0 -0 -0 -0 -0 -0 -0 -0 -0 -0 -0 -0
-0 -0 -0 -0 -0 -0 -0 -0 -0 -0 -0 -0 -0 -0 -0 -0 -0 -0 -0 -0 -0 -11 -0 -0 -0 -0 -0 -0 -0 -0 -0 -0 -1 -0 -0 -0 -0 -1 -0 -0 -0 -0 -0
-0 -0 -0 -0 -0 -0 -0 -0 -0 -0 -0 -0 -0 -0 -0 -0 -0 -0 -0 -0 -0 -0 -0 -0 -0 -0 -0 -0 -0 -1 -0 -1 -2 -3 -3 -1 -0 -0 -0 -0 -0 -0 -0
Wind_Speed
8 10 10 9 10 9 7 7 7 7 6 7 8 6 5 5 4 5 4 4 4 4 4 5 5 5 4 3 3 3 3 3 2 1 2 2 4 4 5 5 4 3 4
5 9 10 10 10 10 9 10 7 8 7 5 5 5 5 3 3 2 2 2 3 4 3 5 5 5 5 4 4 4 4 3 3 1 2 3 1 1 2 3 3 3 4
8 9 10 8 10 11 12 10 9 9 9 7 7 7 6 5 5 5 4 4 4 4 4 6 5 6 5 3 4 4 3 3 3 3 1 1 2 2 3 3 2 4 3
9 10 8 7 9 9 10 10 10 9 8 8 8 8 6 7 6 7 6 6 6 6 6 5 4 6 6 5 5 5 3 4 2 3 1 1 2 2 1 2 3 1 4
7 8 7 7 9 8 8 10 10 11 9 9 10 8 8 8 6 6 7 7 7 6 7 4 5 7 9 7 4 3 4 3 2 2 1 1 2 2 2 2 2 2 4
7 7 7 8 8 7 7 9 11 10 8 8 7 7 6 6 13 12 8 6 7 5 6 6 6 10 6 6 8 8 6 4 3 2 2 2 3 3 2 2 2 2 6
8 7 7 6 7 6 7 9 8 8 7 7 7 7 6 6 13 12 11 5 6 6 5 5 4 5 6 5 5 5 3 3 0 5 4 3 3 3 1 3 2 3 5
7 7 7 7 7 7 8 8 7 6 7 6 6 5 5 6 12 12 13 6 6 6 5 5 4 3 3 2 2 1 1 1 3 2 4 4 5 4 2 2 4 4 4
7 7 7 7 8 7 7 7 5 6 5 4 4 5 6 6 11 10 8 5 5 5 4 2 1 2 6 4 4 3 3 1 3 7 9 10 11 11 9 3 3 3 5
7 7 7 7 7 8 7 7 3 4 5 5 5 4 6 4 8 9 7 3 4 3 2 2 4 2 5 6 3 3 1 2 4 6 7 8 8 7 9 4 2 2 3
7 6 6 6 7 7 7 3 5 5 6 5 5 3 4 2 1 5 6 2 2 2 2 1 2 5 6 4 4 3 3 4 6 4 3 4 4 4 3 4 3 2 5
7 7 6 6 5 5 7 5 5 6 6 5 5 3 1 2 2 2 3 2 0 2 1 1 3 7 5 6 4 4 7 6 3 2 2 2 5 5 3 3 4 4 3
8 7 7 6 6 6 6 6 4 5 4 4 4 3 2 1 3 4 3 4 3 2 0 2 5 5 5 5 5 0 5 2 1 1 2 2 2 3 5 4 4 5 5
9 8 7 7 6 5 4 4 5 4 4 4 4 4 2 1 1 1 1 2 3 2 2 3 3 5 3 1 2 2 1 1 2 1 2 3 3 3 4 2 3 4 4
9 9 8 7 7 6 4 5 5 4 6 5 4 4 4 3 4 5 4 3 2 3 2 1 2 2 2 0 1 2 2 2 2 1 3 3 4 4 5 4 3 4 5
10 8 8 7 5 5 5 3 7 6 11 8 8 7 3 4 5 5 3 3 1 2 2 1 1 2 2 1 1 2 2 3 3 3 3 3 4 4 5 6 5 3 6
13 11 8 8 7 7 4 5 5 3 8 8 9 8 8 5 4 3 4 3 2 0 1 2 2 2 2 2 2 2 2 2 3 3 3 4 4 4 8 6 6 5 6
12 20 10 8 8 7 6 5 5 6 5 3 7 6 8 5 4 3 4 3 1 1 1 1 2 2 3 3 3 2 3 3 4 4 5 5 4 5 6 7 6 8 6
11 9 9 8 7 9 6 6 5 5 5 4 2 6 7 8 5 4 2 2 1 1 1 2 2 2 3 3 4 3 4 4 5 5 2 5 3 4 6 8 7 9 14
11 16 13 9 8 7 7 7 6 5 5 5 4 4 2 3 2 1 1 2 2 1 1 2 2 2 3 3 3 3 4 5 3 4 4 5 5 5 7 8 6 7 8
10 11 17 9 9 9 8 8 7 6 6 6 5 6 11 4 4 3 3 2 2 2 2 3 2 2 2 3 3 4 4 5 4 5 5 5 6 6 7 5 6 8 9
11 11 11 11 10 9 8 7 7 7 6 6 4 5 14 4 4 3 3 2 2 2 2 2 3 2 2 3 4 5 5 5 5 5 6 6 7 6 6 7 8 9 8
10 11 10 8 9 13 9 7 7 7 6 6 5 5 4 4 4 4 3 2 2 2 2 2 2 3 3 4 4 4 5 5 5 5 7 6 6 7 7 8 8 8 8
12 13 12 10 10 9 9 8 6 8 7 6 6 5 5 4 4 4 3 2 2 2 1 2 2 4 5 5 4 5 5 6 6 6 9 8 8 10 8 9 9 10 9
10 10 10 10 11 9 9 7 6 6 6 6 5 5 4 4 4 4 3 3 3 2 2 2 3 5 7 7 7 8 9 13 9 11 6 8 10 12 10 9 10 9 10
10 11 10 9 9 9 8 7 7 7 6 5 5 4 5 4 4 4 3 3 2 2 3 3 4 7 7 6 7 9 12 13 11 15 10 7 8 7 8 10 12 9 10
Wind_Direction
94 99 91 86 86 85 103 107 103 104 119 125 133 129 120 109 107 107 114 128 133 138 157 149 128 124 114 113 92 93 86 91 107 78 40 360 25 20 4 4 357 333 315
73 95 92 99 99 91 77 71 84 96 85 82 86 89 86 87 79 83 117 117 136 135 116 100 114 100 90 77 78 81 80 57 110 167 340 338 17 334 293 327 345 334 336
80 78 80 79 86 94 95 94 85 86 87 83 89 87 75 68 78 71 71 83 89 90 96 108 107 104 89 74 83 85 86 80 84 113 300 319 305 2 341 343 344 320 310
78 75 79 78 85 92 94 93 92 85 82 86 78 79 78 73 63 71 70 68 62 66 65 78 101 111 114 114 93 107 103 92 99 99 99 295 277 302 244 254 309 300 302
84 93 90 76 75 77 87 88 86 84 80 83 85 77 73 73 74 81 78 76 75 68 70 70 99 122 126 134 125 132 118 84 64 81 211 225 265 298 299 304 294 291 267
87 82 73 69 69 82 86 85 83 81 77 77 70 79 74 82 85 85 87 89 81 67 74 51 51 58 63 98 110 125 133 147 173 166 232 231 256 250 259 251 261 357 320
111 102 101 105 101 98 99 92 86 83 89 83 73 73 71 67 82 80 82 72 83 79 79 65 56 44 59 56 74 89 43 349 103 168 195 219 247 229 238 299 292 298 280
118 122 126 119 111 100 91 91 88 78 84 82 82 88 94 76 82 85 87 70 73 69 76 76 66 33 325 198 152 141 271 323 295 227 202 249 231 273 223 261 301 299 293
144 143 139 130 123 119 112 117 108 109 100 101 123 107 92 73 82 94 97 87 84 72 65 43 207 334 309 289 147 209 238 84 356 33 14 3 353 353 337 33 346 324 309
162 157 148 143 137 134 135 129 113 113 124 123 103 94 116 85 102 110 119 120 104 103 61 8 353 293 294 335 111 178 51 53 36 14 4 358 2 349 2 31 327 312 295
147 142 142 144 139 133 126 108 120 113 111 108 111 91 96 98 43 137 136 138 149 138 108 359 326 324 342 31 91 92 86 71 41 39 358 351 346 340 342 331 319 264 296
146 145 146 141 135 135 132 119 124 129 130 134 130 112 61 7 327 253 119 39 223 120 129 192 295 327 29 18 30 4 79 88 85 49 351 344 358 357 324 275 276 274 252
147 154 153 146 141 143 141 141 129 144 146 156 157 160 169 24 19 46 38 336 36 90 293 307 18 14 17 4 339 273 85 110 268 292 310 302 288 289 301 295 280 250 264
161 158 152 150 153 154 143 149 146 159 159 163 170 178 182 181 253 319 308 323 318 12 10 353 355 345 20 354 1 40 26 260 254 290 288 290 288 307 307 297 293 315 308
162 159 163 166 163 159 166 171 174 189 169 170 188 173 174 206 227 208 220 235 200 267 136 135 99 290 271 188 3 345 336 311 308 319 299 303 302 306 302 305 281 297 306
164 166 173 165 158 157 154 131 200 187 194 188 180 165 204 204 202 232 276 212 247 351 121 214 263 273 279 254 303 312 312 328 319 332 306 302 305 310 309 304 300 276 310
175 170 167 163 160 162 158 158 155 187 176 181 172 173 171 188 221 266 301 224 240 157 171 253 253 259 258 249 264 259 276 291 314 292 296 289 293 296 309 294 297 278 299
176 175 167 166 165 160 163 162 150 160 159 174 180 166 176 186 218 274 285 130 83 2 208 266 262 246 251 253 258 255 267 262 260 267 266 265 277 301 301 296 292 288 288
172 169 164 160 162 163 151 148 150 151 156 158 148 189 196 204 215 250 180 150 196 229 252 272 267 275 275 275 255 265 269 275 274 284 298 316 289 291 286 283 276 297 310
175 173 162 158 157 151 155 158 160 165 163 176 182 188 158 152 154 199 188 205 190 213 244 273 241 272 304 315 318 301 285 281 289 288 282 284 284 280 282 290 291 304 292
165 168 166 155 162 163 166 171 168 171 177 186 192 188 193 172 190 204 217 218 192 202 222 243 259 263 263 272 276 282 278 279 283 283 285 283 284 279 283 279 298 288 285
165 163 162 166 160 160 164 161 165 170 174 175 164 190 201 177 181 192 208 218 216 211 223 256 274 248 253 260 266 262 268 272 273 274 277 278 277 277 293 290 284 285 282
155 153 155 157 155 156 157 160 163 167 171 166 163 174 189 163 172 183 196 196 212 226 249 265 278 290 278 278 270 271 275 277 277 280 278 289 299 290 286 286 289 289 286
160 160 158 154 153 150 153 161 163 170 166 162 168 176 173 167 169 179 183 193 205 239 271 259 265 272 270 268 266 268 275 287 281 279 279 277 285 291 280 276 278 280 278
153 150 150 150 151 147 149 151 153 165 166 171 172 170 167 162 167 178 182 195 206 193 269 280 254 276 283 284 279 279 283 294 293 286 289 276 270 277 277 276 279 279 274
145 143 142 142 138 142 145 145 167 170 174 171 166 163 164 165 171 173 186 201 195 215 265 260 266 264 270 277 281 291 310 309 298 295 291 277 286 288 296 292 287 288 286